TimeEDT,TemperatureF,Dew PointF,Humidity,Sea Level PressureIn,VisibilityMPH,Wind Direction,Wind SpeedMPH,Gust SpeedMPH,PrecipitationIn,Events,Conditions,WindDirDegrees,DateUTC
12:30 AM,32.0,30.0,92,29.55,1.5,Calm,Calm,-,0.00,Snow,Light Snow,0,2014-03-11 04:30:00
12:50 AM,32.0,30.2,93,29.53,2.0,Calm,Calm,-,0.00,Snow,Light Snow,0,2014-03-11 04:50:00
12:54 AM,32.0,30.0,92,29.55,2.5,Variable,3.5,-,0.00,Snow,Light Snow,0,2014-03-11 04:54:00
12:57 AM,32.0,30.0,92,29.52,3.0,Calm,Calm,-,0.00,Snow,Light Snow,0,2014-03-11 04:57:00
1:54 AM,32.0,30.9,96,29.52,3.0,NNW,3.5,-,0.00,,Overcast,340,2014-03-11 05:54:00
2:54 AM,32.0,30.9,96,29.51,3.0,Calm,Calm,-,N/A,,Overcast,0,2014-03-11 06:54:00
3:54 AM,32.0,30.9,96,29.50,2.5,Calm,Calm,-,N/A,,Overcast,0,2014-03-11 07:54:00
4:41 AM,28.9,28.0,96,29.48,1.0,Calm,Calm,-,N/A,,Partly Cloudy,0,2014-03-11 08:41:00
4:54 AM,28.9,28.0,96,29.50,0.8,Calm,Calm,-,N/A,,Mist,0,2014-03-11 08:54:00
5:12 AM,28.9,27.0,92,29.48,1.2,Calm,Calm,-,N/A,,Scattered Clouds,0,2014-03-11 09:12:00
5:43 AM,27.0,26.1,96,29.48,2.0,Calm,Calm,-,N/A,,Partly Cloudy,0,2014-03-11 09:43:00
5:50 AM,26.6,26.6,100,29.48,1.2,Calm,Calm,-,N/A,,Scattered Clouds,0,2014-03-11 09:50:00
5:54 AM,28.0,26.1,92,29.50,1.2,Calm,Calm,-,N/A,,Scattered Clouds,0,2014-03-11 09:54:00
6:03 AM,28.0,27.0,96,29.48,0.2,Calm,Calm,-,N/A,Fog,Light Freezing Fog,0,2014-03-11 10:03:00
6:12 AM,28.0,26.1,92,29.48,0.2,Calm,Calm,-,N/A,Fog,Light Freezing Fog,0,2014-03-11 10:12:00
6:49 AM,26.6,26.6,100,29.47,0.5,Calm,Calm,-,N/A,Fog,Light Freezing Fog,0,2014-03-11 10:49:00
6:54 AM,26.1,26.1,100,29.50,0.5,Calm,Calm,-,N/A,Fog,Light Freezing Fog,0,2014-03-11 10:54:00
7:02 AM,27.0,25.0,92,29.48,0.5,Calm,Calm,-,N/A,Fog,Light Freezing Fog,0,2014-03-11 11:02:00
7:15 AM,27.0,26.1,96,29.48,0.2,Calm,Calm,-,N/A,Fog,Light Freezing Fog,0,2014-03-11 11:15:00
7:25 AM,26.1,26.1,100,29.49,0.2,Calm,Calm,-,N/A,Fog,Light Freezing Fog,0,2014-03-11 11:25:00
7:54 AM,27.0,27.0,100,29.52,0.2,Calm,Calm,-,N/A,Fog,Light Freezing Fog,0,2014-03-11 11:54:00
8:15 AM,26.1,26.1,100,29.51,1.0,Calm,Calm,-,N/A,,Mist,0,2014-03-11 12:15:00
8:22 AM,27.0,26.1,96,29.51,1.8,Calm,Calm,-,N/A,,Scattered Clouds,0,2014-03-11 12:22:00
8:29 AM,26.1,26.1,100,29.51,0.2,Calm,Calm,-,N/A,Fog,Light Freezing Fog,0,2014-03-11 12:29:00
8:46 AM,27.0,26.1,96,29.52,1.0,East,3.5,-,N/A,,Scattered Clouds,80,2014-03-11 12:46:00
8:54 AM,27.0,27.0,100,29.54,1.8,Calm,Calm,-,N/A,,Partly Cloudy,0,2014-03-11 12:54:00
9:02 AM,28.0,27.0,96,29.52,2.5,ESE,4.6,-,N/A,,Clear,110,2014-03-11 13:02:00
9:19 AM,28.9,28.9,100,29.52,4.0,ENE,4.6,-,N/A,,Clear,70,2014-03-11 13:19:00
9:54 AM,34.0,30.9,89,29.54,6.0,South,5.8,-,N/A,,Clear,180,2014-03-11 13:54:00
10:54 AM,46.0,30.0,54,29.54,10.0,West,9.2,-,N/A,,Clear,280,2014-03-11 14:54:00
11:54 AM,46.9,28.0,48,29.54,10.0,West,8.1,-,N/A,,Clear,270,2014-03-11 15:54:00
12:54 PM,48.0,28.0,46,29.55,10.0,WNW,13.8,21.9,N/A,,Partly Cloudy,290,2014-03-11 16:54:00
1:54 PM,48.9,27.0,43,29.57,10.0,West,13.8,20.7,N/A,,Mostly Cloudy,270,2014-03-11 17:54:00
2:54 PM,48.9,26.1,41,29.57,10.0,West,16.1,21.9,N/A,,Scattered Clouds,280,2014-03-11 18:54:00
3:54 PM,48.9,26.1,41,29.58,10.0,West,4.6,-,N/A,,Partly Cloudy,280,2014-03-11 19:54:00
4:54 PM,51.1,25.0,36,29.59,10.0,WNW,9.2,-,N/A,,Clear,290,2014-03-11 20:54:00
5:54 PM,51.1,26.1,38,29.60,10.0,Variable,4.6,-,N/A,,Partly Cloudy,0,2014-03-11 21:54:00
6:54 PM,45.0,24.1,44,29.64,10.0,Variable,3.5,-,N/A,,Clear,0,2014-03-11 22:54:00
7:54 PM,35.1,27.0,72,29.68,10.0,Calm,Calm,-,N/A,,Clear,0,2014-03-11 23:54:00
8:54 PM,30.9,26.1,82,29.70,10.0,Calm,Calm,-,N/A,,Clear,0,2014-03-12 00:54:00
9:54 PM,30.0,25.0,82,29.73,9.0,Calm,Calm,-,N/A,,Mostly Cloudy,0,2014-03-12 01:54:00
10:54 PM,30.0,26.1,85,29.73,10.0,Calm,Calm,-,N/A,,Overcast,0,2014-03-12 02:54:00
11:54 PM,28.9,25.0,85,29.73,10.0,Calm,Calm,-,N/A,,Scattered Clouds,0,2014-03-12 03:54:00